| time (UTC) | temp F | wind direction | speed MPH | gust MPH | rain 1hr in | rain 24hr in | rain mn in | humidity % | barometer mb |
| 20260508191554 | 68 | 226 | 0.0 | 2.0 | 0.00 | 0.00 | 0.00 | 59 | 1017.6 |
| 20260508190042 | 68 | 200 | 0.0 | 3.0 | 0.00 | 0.00 | 0.00 | 59 | 1017.7 |
| 20260508184542 | 68 | 195 | 0.0 | 0.0 | 0.00 | 0.00 | 0.00 | 59 | 1017.7 |
| 20260508183028 | 67 | 239 | 0.0 | 0.0 | 0.00 | 0.00 | 0.00 | 59 | 1017.9 |
| 20260508181532 | 68 | 191 | 0.0 | 4.0 | 0.00 | 0.00 | 0.00 | 58 | 1017.9 |
| 20260508180020 | 67 | 134 | 0.0 | 0.0 | 0.00 | 0.00 | 0.00 | 58 | 1018.1 |
| 20260508174527 | 66 | 224 | 0.0 | 0.0 | 0.00 | 0.00 | 0.00 | 58 | 1018.1 |
| 20260508173009 | 65 | 134 | 0.0 | 3.0 | 0.00 | 0.00 | 0.00 | 57 | 1018.0 |
| 20260508171505 | 65 | 260 | 0.0 | 0.0 | 0.00 | 0.00 | 0.00 | 53 | 1018.0 |
| 20260508170044 | 64 | 180 | 0.0 | 0.0 | 0.00 | 0.00 | 0.00 | 48 | 1018.0 |
| 20260508164540 | 65 | 233 | 0.0 | 0.0 | 0.00 | 0.00 | 0.00 | 12 | 1018.0 |
| 20260508163029 | 65 | 122 | 0.0 | 0.0 | 0.00 | 0.00 | 0.00 | 3 | 1018.0 |
| 20260508161520 | 61 | 211 | 0.0 | 0.0 | 0.00 | 0.00 | 0.00 | 3 | 1018.1 |
| 20260508160052 | 58 | 129 | 0.0 | 0.0 | 0.00 | 0.00 | 0.00 | 3 | 1017.8 |
| 20260508154547 | 56 | 121 | 0.0 | 0.0 | 0.00 | 0.00 | 0.00 | 3 | 1017.9 |
| 20260508153025 | 56 | 198 | 0.0 | 0.0 | 0.00 | 0.00 | 0.00 | 3 | 1018.0 |
| 20260508151521 | 55 | 205 | 0.0 | 0.0 | 0.00 | 0.00 | 0.00 | 3 | 1017.9 |
| 20260508150059 | 55 | 173 | 0.0 | 0.0 | 0.00 | 0.00 | 0.00 | 3 | 1017.8 |
| 20260508144600 | 54 | 222 | 0.0 | 0.0 | 0.00 | 0.00 | 0.00 | 3 | 1017.7 |
| 20260508143035 | 54 | 181 | 0.0 | 0.0 | 0.00 | 0.00 | 0.00 | 3 | 1017.6 |
| 20260508141529 | 53 | 181 | 0.0 | 0.0 | 0.00 | 0.00 | 0.00 | 3 | 1017.5 |
| 20260508140015 | 0 | 0.0 | 0.0 | 0.00 | 0.00 | 0.00 | 1017.5 | ||
| 20260508134502 | 0 | 0.0 | 0.0 | 0.00 | 0.00 | 0.00 | 1017.4 | ||
| 20260508133041 | 0 | 0.0 | 0.0 | 0.00 | 0.00 | 0.00 | 1017.3 | ||
| 20260508131536 | 0 | 0.0 | 0.0 | 0.00 | 0.00 | 0.00 | 1017.3 | ||
| 20260508130015 | 0 | 0.0 | 0.0 | 0.00 | 0.00 | 0.00 | 1017.1 | ||
| 20260508124511 | 0 | 0.0 | 0.0 | 0.00 | 0.00 | 0.00 | 1017.0 | ||
| 20260508123103 | 0 | 0.0 | 0.0 | 0.00 | 0.00 | 0.00 | 1017.0 | ||
| 20260508121545 | 0 | 0.0 | 0.0 | 0.00 | 0.00 | 0.00 | 1017.1 | ||
| 20260508120023 | 53 | 354 | 0.0 | 0.0 | 0.00 | 0.00 | 0.00 | 3 | 1016.9 |
| 20260508114518 | 54 | 354 | 0.0 | 0.0 | 0.00 | 0.00 | 0.00 | 3 | 1017.1 |
| 20260508113103 | 54 | 354 | 0.0 | 0.0 | 0.00 | 0.00 | 0.00 | 3 | 1017.1 |
| 20260508111552 | 54 | 307 | 0.0 | 0.0 | 0.00 | 0.00 | 0.00 | 3 | 1017.2 |
| 20260508110034 | 54 | 115 | 0.0 | 0.0 | 0.00 | 0.00 | 0.00 | 3 | 1017.4 |
| 20260508104530 | 54 | 162 | 0.0 | 0.0 | 0.00 | 0.00 | 0.00 | 3 | 1017.3 |
| 20260508103033 | 54 | 141 | 0.0 | 0.0 | 0.00 | 0.00 | 0.00 | 3 | 1017.2 |
| 20260508101522 | 54 | 223 | 0.0 | 0.0 | 0.00 | 0.00 | 0.00 | 3 | 1017.1 |
| 20260508100019 | 55 | 225 | 0.0 | 0.0 | 0.00 | 0.00 | 0.00 | 3 | 1017.2 |
| 20260508094512 | 55 | 163 | 0.0 | 0.0 | 0.00 | 0.00 | 0.00 | 3 | 1017.0 |
| 20260508093008 | 55 | 232 | 0.0 | 0.0 | 0.00 | 0.00 | 0.00 | 3 | 1016.9 |
| 20260508091505 | 55 | 233 | 0.0 | 3.0 | 0.00 | 0.00 | 0.00 | 3 | 1017.1 |
| 20260508090048 | 56 | 207 | 0.0 | 0.0 | 0.00 | 0.00 | 0.00 | 3 | 1017.0 |
| 20260508084537 | 56 | 214 | 0.0 | 0.0 | 0.00 | 0.00 | 0.00 | 3 | 1017.0 |
| 20260508083014 | 56 | 190 | 0.0 | 0.0 | 0.00 | 0.00 | 0.00 | 3 | 1017.0 |
| 20260508081529 | 56 | 208 | 0.0 | 0.0 | 0.00 | 0.00 | 0.00 | 3 | 1016.9 |
| 20260508080048 | 56 | 224 | 0.0 | 0.0 | 0.00 | 0.00 | 0.00 | 3 | 1017.0 |
| 20260508074544 | 56 | 211 | 0.0 | 0.0 | 0.00 | 0.00 | 0.00 | 3 | 1017.1 |
| 20260508073022 | 56 | 211 | 0.0 | 0.0 | 0.00 | 0.00 | 0.00 | 3 | 1017.0 |
| 20260508071535 | 56 | 165 | 0.0 | 0.0 | 0.00 | 0.00 | 0.00 | 3 | 1016.8 |
| 20260508070057 | 56 | 191 | 0.0 | 0.0 | 0.00 | 0.00 | 0.00 | 3 | 1016.9 |
| 20260508064553 | 56 | 229 | 0.0 | 0.0 | 0.00 | 0.00 | 0.00 | 3 | 1016.9 |
| 20260508063044 | 56 | 100 | 0.0 | 1.0 | 0.00 | 0.00 | 0.00 | 3 | 1016.9 |
| 20260508061525 | 57 | 211 | 0.0 | 4.0 | 0.00 | 0.00 | 0.00 | 3 | 1016.9 |
| 20260508060004 | 57 | 134 | 0.0 | 3.0 | 0.00 | 0.00 | 0.00 | 3 | 1017.0 |
| 20260508054559 | 57 | 252 | 0.0 | 3.0 | 0.00 | 0.00 | 0.00 | 3 | 1016.8 |
| 20260508053040 | 57 | 204 | 0.0 | 2.0 | 0.00 | 0.00 | 0.00 | 3 | 1016.9 |
| 20260508051535 | 57 | 188 | 0.0 | 4.0 | 0.00 | 0.00 | 0.00 | 3 | 1017.0 |
| 20260508050011 | 58 | 225 | 0.0 | 0.0 | 0.00 | 0.00 | 0.00 | 3 | 1016.9 |
| 20260508044506 | 58 | 197 | 0.0 | 7.0 | 0.00 | 0.00 | 0.00 | 3 | 1016.7 |
| 20260508043045 | 59 | 176 | 0.0 | 5.0 | 0.00 | 0.00 | 0.00 | 3 | 1016.7 |
| 20260508041541 | 59 | 197 | 0.0 | 11.0 | 0.00 | 0.00 | 0.00 | 3 | 1016.4 |
| 20260508040019 | 59 | 173 | 0.0 | 3.0 | 0.00 | 0.00 | 0.00 | 3 | 1016.3 |
| 20260508034515 | 60 | 194 | 0.0 | 7.0 | 0.00 | 0.00 | 0.00 | 3 | 1016.1 |
| 20260508033057 | 61 | 217 | 2.0 | 10.0 | 0.00 | 0.00 | 0.00 | 3 | 1016.2 |
| 20260508031556 | 61 | 231 | 1.0 | 9.0 | 0.00 | 0.00 | 0.00 | 3 | 1015.9 |
| 20260508030049 | 61 | 166 | 2.0 | 12.0 | 0.00 | 0.00 | 0.00 | 3 | 1015.8 |
| 20260508024550 | 62 | 136 | 1.0 | 10.0 | 0.00 | 0.00 | 0.00 | 17 | 1015.5 |
| 20260508023039 | 62 | 203 | 0.0 | 9.0 | 0.00 | 0.00 | 0.00 | 29 | 1015.6 |
| 20260508021535 | 63 | 195 | 2.0 | 11.0 | 0.00 | 0.00 | 0.00 | 38 | 1015.7 |
| 20260508020044 | 64 | 207 | 2.0 | 8.0 | 0.00 | 0.00 | 0.00 | 49 | 1015.6 |
| 20260508014543 | 65 | 225 | 0.0 | 4.0 | 0.00 | 0.00 | 0.00 | 55 | 1015.6 |
| 20260508013036 | 66 | 155 | 0.0 | 4.0 | 0.00 | 0.00 | 0.00 | 56 | 1015.7 |
| 20260508011534 | 66 | 211 | 0.0 | 7.0 | 0.00 | 0.00 | 0.00 | 57 | 1015.9 |
| 20260508004601 | 66 | 198 | 0.0 | 7.0 | 0.00 | 0.00 | 0.00 | 58 | 1016.0 |
| 20260508003053 | 66 | 238 | 1.0 | 12.0 | 0.00 | 0.00 | 0.00 | 59 | 1016.0 |
| 20260508001546 | 66 | 226 | 0.0 | 8.0 | 0.00 | 0.00 | 0.00 | 59 | 1016.0 |
| 20260507234542 | 67 | 224 | 1.0 | 10.0 | 0.00 | 0.00 | 0.00 | 60 | 1015.9 |
| 20260507233043 | 67 | 195 | 0.0 | 9.0 | 0.00 | 0.00 | 0.00 | 59 | 1016.1 |
| 20260507231536 | 68 | 158 | 2.0 | 9.0 | 0.00 | 0.00 | 0.00 | 59 | 1016.2 |
| 20260507230028 | 68 | 216 | 1.0 | 10.0 | 0.00 | 0.00 | 0.00 | 59 | 1016.3 |
| 20260507224530 | 68 | 215 | 0.0 | 11.0 | 0.00 | 0.00 | 0.00 | 60 | 1016.5 |
| 20260507223019 | 69 | 214 | 0.0 | 8.0 | 0.00 | 0.00 | 0.00 | 59 | 1016.6 |
| 20260507221515 | 69 | 210 | 0.0 | 4.0 | 0.00 | 0.00 | 0.00 | 59 | 1016.7 |
| 20260507220009 | 68 | 248 | 0.0 | 5.0 | 0.00 | 0.00 | 0.00 | 59 | 1016.8 |
| 20260507214601 | 69 | 165 | 0.0 | 5.0 | 0.00 | 0.00 | 0.00 | 59 | 1017.0 |
| 20260507213046 | 69 | 207 | 0.0 | 5.0 | 0.00 | 0.00 | 0.00 | 58 | 1017.3 |
| 20260507211525 | 69 | 226 | 0.0 | 7.0 | 0.00 | 0.00 | 0.00 | 58 | 1017.4 |
| 20260507210018 | 69 | 232 | 0.0 | 2.0 | 0.00 | 0.00 | 0.00 | 58 | 1017.4 |
| 20260507204558 | 69 | 293 | 0.0 | 4.0 | 0.00 | 0.00 | 0.00 | 58 | 1017.5 |
| 20260507203105 | 69 | 193 | 0.0 | 3.0 | 0.00 | 0.00 | 0.00 | 58 | 1017.7 |
| 20260507201530 | 69 | 143 | 0.0 | 2.0 | 0.00 | 0.00 | 0.00 | 57 | 1017.7 |
| 20260507200027 | 69 | 208 | 0.0 | 4.0 | 0.00 | 0.00 | 0.00 | 57 | 1017.8 |
| 20260507194505 | 69 | 127 | 0.0 | 0.0 | 0.00 | 0.00 | 0.00 | 56 | 1017.9 |
| 20260507193100 | 68 | 208 | 0.0 | 0.0 | 0.00 | 0.00 | 0.00 | 54 | 1018.1 |